Theta_e
320 321 320 316 316 319 322 325 324 326 325 315 319 324 331 342 341 343 343 343 345 346 345 344 345 343 346 346 347 347 344 345 345 341 341 345 343 342 343 342 343 342 342 342 341 340 338 338 339 339 340 340 340 340 339 339 338 338 337 336 336 336 336 336 337 337 337 337 337 337 337 337 337 337 337 337 337 338 338 337 337 337 337 337 337 336 336 337 338 337 337 336 335 334 332 333 335
324 322 318 315 318 323 324 327 323 319 318 313 319 327 334 342 340 341 343 344 346 344 344 343 343 343 344 344 344 344 345 344 343 345 344 342 342 342 342 341 342 341 342 342 341 341 339 338 339 339 339 339 339 339 339 338 338 337 336 335 335 336 336 336 336 337 337 337 337 337 337 335 334 334 334 335 336 336 336 337 337 337 337 338 338 336 335 335 337 337 337 336 333 332 331 333 334
324 319 316 318 322 325 325 327 321 313 312 312 320 333 338 340 340 342 345 345 345 342 343 343 343 344 343 344 344 344 346 343 342 342 342 342 342 342 341 341 341 342 342 341 340 341 341 338 339 339 338 338 338 339 339 338 337 335 335 335 335 336 335 336 336 336 336 336 337 338 337 335 334 334 334 335 335 335 336 337 337 336 336 337 338 337 336 336 335 337 336 333 330 330 331 332 333
322 318 319 322 324 324 326 325 322 313 310 313 320 335 339 339 343 343 344 343 343 342 342 343 343 342 341 345 343 342 345 343 343 342 342 341 341 341 341 340 341 341 341 341 340 341 341 338 338 338 339 339 339 339 339 337 336 335 335 335 334 335 335 336 335 336 336 336 337 337 337 335 335 336 336 336 335 335 335 336 337 337 336 336 337 336 336 336 334 332 330 327 326 328 328 328 330
319 319 321 325 325 325 327 325 322 315 313 317 321 334 341 339 343 342 343 342 341 342 341 342 343 341 340 342 340 342 344 343 343 342 342 341 341 340 339 339 340 340 340 341 340 341 339 336 336 337 337 338 339 339 337 336 336 336 337 336 335 334 334 335 335 336 336 336 336 336 336 336 336 336 335 335 334 334 333 333 334 335 336 337 337 336 335 335 333 329 327 325 325 325 325 326 327
320 322 323 326 326 325 325 320 317 316 324 329 326 336 341 339 342 341 344 343 341 340 340 340 340 341 341 341 340 341 341 342 342 341 342 342 341 339 338 339 340 340 340 341 340 341 339 336 336 336 336 337 338 338 336 337 337 337 337 336 335 335 335 335 336 336 337 337 336 336 336 336 336 335 334 334 334 333 332 331 330 331 332 333 334 335 336 335 334 332 331 328 328 328 328 328 329
322 324 324 324 323 324 322 316 315 319 331 337 332 339 342 341 341 342 345 343 341 340 339 340 338 340 343 340 340 341 340 341 341 341 341 340 340 340 339 339 340 341 340 340 340 340 337 335 335 335 336 337 338 337 336 336 336 336 336 336 335 336 335 336 336 336 336 336 335 335 335 334 334 334 333 333 333 332 332 330 327 327 328 329 330 332 333 333 333 333 332 330 330 330 331 332 332
322 323 323 323 322 324 321 316 320 326 333 338 336 340 342 341 341 342 344 343 343 342 341 341 338 341 343 340 342 341 340 340 340 340 339 338 340 340 339 339 341 341 340 340 339 339 337 335 334 335 336 337 338 336 335 335 335 334 335 335 336 336 335 336 335 335 335 334 335 334 333 333 331 331 331 331 330 328 328 326 325 326 327 328 329 329 330 330 330 330 331 330 330 331 332 333 332
322 322 321 323 324 322 319 318 324 332 335 338 340 343 342 341 342 343 342 342 344 343 343 341 338 342 343 340 342 340 339 339 339 340 338 337 340 340 339 339 340 341 340 340 338 338 337 335 333 334 336 337 337 335 334 334 334 334 334 335 335 335 335 335 334 334 333 333 333 332 332 331 328 328 329 327 324 321 320 320 321 323 324 326 326 327 328 328 329 329 329 329 330 330 331 331 331
322 321 322 324 323 318 316 319 324 332 336 338 342 343 343 342 343 342 342 342 343 344 344 340 339 342 342 341 341 340 340 339 339 339 338 338 340 340 340 340 340 340 340 341 339 337 337 335 333 335 336 336 336 335 334 333 333 334 334 334 334 334 334 335 334 333 333 332 332 331 330 329 327 325 323 321 319 318 318 318 318 318 319 320 321 322 323 325 326 327 328 328 329 329 330 330 330
322 320 323 324 319 314 314 319 325 332 337 339 342 341 341 342 341 342 342 343 343 344 342 340 342 342 341 341 340 339 339 338 339 339 338 338 339 340 340 339 339 339 339 340 340 338 337 335 334 335 336 335 335 333 333 333 333 333 333 334 333 333 332 333 334 334 333 332 331 331 330 329 328 324 320 319 319 319 319 319 319 318 318 318 318 318 319 321 323 324 326 328 328 328 329 329 330
321 321 324 323 318 317 318 321 325 334 339 339 342 341 340 342 342 341 341 343 344 344 341 340 341 341 340 342 339 338 339 339 338 338 337 338 339 339 339 339 339 338 339 340 340 339 338 336 334 334 335 334 333 333 333 333 333 333 333 333 332 332 332 333 334 334 333 332 332 332 331 330 328 325 322 321 320 319 319 319 319 319 319 319 319 318 317 318 320 322 324 326 327 328 328 329 329
322 322 323 322 321 322 322 323 328 335 338 339 342 342 341 341 341 339 338 341 342 342 341 339 339 340 340 342 339 338 339 339 338 336 336 338 339 339 338 338 338 338 338 339 340 339 338 338 337 336 336 335 335 334 333 333 333 332 333 333 333 333 333 334 333 332 332 332 332 332 330 329 327 325 323 321 320 320 319 320 319 319 319 319 319 320 319 318 318 320 323 325 327 328 328 328 329
321 322 324 323 324 326 324 324 329 330 331 339 343 343 343 341 339 337 336 339 341 341 340 338 337 339 340 340 339 338 338 338 337 336 337 338 339 338 338 338 338 337 337 339 339 339 338 338 339 339 338 337 337 335 334 334 333 333 334 334 334 335 335 334 331 329 329 330 330 330 329 328 326 323 321 320 319 319 319 319 319 319 318 318 318 318 319 319 319 318 320 323 325 327 327 328 329
320 323 327 325 323 325 325 326 328 326 330 341 343 342 344 341 338 338 339 340 342 339 337 338 336 338 339 339 339 338 338 337 336 336 336 338 338 338 338 338 337 337 337 338 339 338 338 338 339 339 339 339 338 337 336 335 334 334 336 335 335 335 334 332 329 328 327 327 328 328 326 325 322 320 320 320 319 319 319 318 318 317 317 316 316 317 318 319 319 318 318 320 322 323 324 325 328
321 325 327 325 322 322 324 328 329 326 331 341 342 342 345 341 338 340 341 340 341 337 337 339 337 338 338 338 340 338 338 337 336 335 336 337 338 338 338 337 337 337 338 338 338 338 339 339 338 338 339 339 338 338 338 336 334 334 334 333 334 333 332 329 326 324 323 324 323 323 323 324 325 322 323 323 320 318 317 316 316 315 315 314 313 314 316 318 319 319 318 319 320 321 322 323 326
322 327 327 323 321 321 325 329 328 327 333 341 343 342 344 342 339 339 339 339 339 338 337 338 337 337 337 338 339 338 338 338 336 336 337 337 337 337 337 336 336 337 337 337 338 337 338 339 339 338 339 339 338 337 336 334 332 332 332 331 331 330 330 328 325 324 323 322 321 323 325 327 327 325 324 324 322 320 316 315 315 315 314 313 313 314 316 317 318 319 318 319 319 320 323 325 328
321 326 325 320 322 324 326 330 330 330 334 340 343 341 342 343 340 338 338 339 338 337 337 337 337 337 337 338 338 337 338 338 337 336 337 336 336 336 336 336 336 336 336 336 337 337 338 338 338 338 338 337 335 333 332 331 330 331 330 329 329 329 328 328 327 326 326 325 324 325 326 326 325 324 322 321 322 320 316 315 315 315 315 314 314 315 316 317 317 318 318 319 319 320 325 328 330
322 327 324 321 326 328 328 329 331 332 334 339 342 340 341 342 340 338 339 341 339 337 337 337 337 337 336 337 337 337 338 338 337 337 337 336 335 335 336 336 336 336 335 335 336 337 337 337 337 337 335 333 331 331 330 330 329 328 328 328 327 327 327 327 327 326 326 326 326 326 325 324 323 322 319 318 320 319 317 316 316 316 316 315 317 318 317 316 317 318 318 318 319 321 324 326 330
323 326 323 325 329 330 331 330 331 333 334 338 340 339 340 340 339 339 338 339 338 337 337 336 337 337 337 336 337 338 338 337 337 337 337 337 336 336 337 336 335 335 335 335 336 337 336 336 336 335 333 332 330 329 329 329 328 327 326 326 326 326 326 325 325 325 325 325 325 325 324 324 323 322 319 318 319 319 319 318 318 318 319 317 318 320 319 317 318 318 318 319 320 322 324 325 328
323 327 326 326 328 329 332 331 331 333 334 337 340 340 340 338 337 338 338 338 336 336 335 335 336 336 337 336 337 337 337 337 337 337 337 337 336 336 336 336 335 335 335 334 335 336 337 336 335 333 332 331 329 328 328 327 326 325 325 325 325 324 324 324 324 324 325 324 324 323 323 322 321 320 319 318 318 318 318 319 319 320 320 320 320 321 320 319 319 319 319 319 321 322 324 324 326
326 330 329 327 328 331 333 332 333 335 335 337 340 341 339 337 336 336 337 337 336 335 335 336 334 335 337 335 336 337 337 337 337 337 337 337 337 336 337 336 335 335 335 334 334 336 337 337 335 333 332 330 328 327 327 326 325 325 324 324 323 323 323 323 323 323 323 323 322 322 321 320 319 319 318 318 318 317 317 318 319 319 320 320 320 320 319 319 319 319 320 319 320 321 323 324 325
329 330 331 331 332 333 333 333 333 334 335 337 339 339 338 337 336 335 336 337 336 334 335 335 334 335 337 336 336 336 336 337 337 337 337 337 337 336 336 335 335 334 334 334 334 335 336 337 335 332 331 329 328 327 326 325 324 324 323 322 321 321 322 322 322 322 322 322 320 320 319 319 318 318 318 317 316 316 317 317 317 318 319 319 320 320 319 319 319 319 320 320 320 320 321 323 324
329 332 335 335 334 334 334 334 334 336 337 338 338 338 338 338 337 336 336 337 334 334 335 335 336 336 336 335 336 336 335 336 337 337 336 337 337 336 335 335 335 334 334 333 333 333 334 336 335 332 329 327 327 326 325 324 323 323 322 321 321 321 322 321 321 321 321 320 320 319 318 318 318 317 317 317 316 315 315 316 316 317 318 318 318 319 319 319 319 319 319 319 319 320 321 322 324
331 335 337 336 335 335 334 335 337 338 338 337 338 337 338 337 337 337 337 336 334 334 335 335 335 335 336 335 335 336 336 336 336 337 336 335 336 335 335 334 335 335 333 333 331 331 333 335 334 331 329 327 326 325 323 323 322 321 321 321 321 321 321 320 320 320 319 319 319 319 318 318 318 317 317 316 316 315 315 315 316 316 317 318 318 318 318 319 319 319 319 319 318 319 320 321 323
333 337 338 337 337 337 336 337 338 339 338 338 338 338 337 336 336 337 336 335 334 334 334 334 334 334 335 334 334 335 335 336 336 336 336 335 335 335 335 335 334 334 333 331 329 328 330 331 331 329 327 327 326 324 323 322 321 320 321 321 321 320 320 319 319 319 318 318 319 319 319 319 318 318 317 315 315 314 314 315 316 316 316 317 317 318 318 318 318 318 319 319 318 318 319 320 322
335 337 338 337 338 338 337 338 339 339 339 338 337 337 337 336 335 337 336 334 334 334 335 335 334 334 334 333 334 335 336 336 336 336 336 335 335 334 335 334 334 333 332 329 328 327 327 327 328 327 326 326 324 323 322 321 321 320 321 320 319 319 319 319 319 318 318 318 319 320 319 319 319 318 317 315 313 313 313 313 314 316 316 316 317 317 318 318 318 317 318 319 319 318 318 319 321
336 336 337 336 337 338 338 338 339 338 338 338 336 336 336 335 335 336 335 334 334 335 336 335 334 333 333 333 333 333 335 335 335 336 336 335 334 334 334 334 333 332 330 328 327 327 327 326 326 326 326 325 323 322 321 320 321 321 320 319 319 319 318 318 318 318 318 319 320 320 320 320 320 319 318 315 313 311 312 312 312 314 315 316 316 317 317 317 317 317 318 318 318 318 318 318 319
333 334 337 337 337 337 336 337 337 336 337 336 335 335 335 335 335 336 334 333 334 334 334 333 333 332 332 333 332 332 334 334 335 335 335 334 334 334 334 333 333 330 328 327 327 327 326 326 326 325 325 323 322 321 320 320 320 320 319 318 318 318 318 318 318 319 319 320 320 320 321 321 320 319 318 315 312 311 311 310 310 311 314 315 316 316 316 316 317 317 317 317 318 318 318 318 318
334 335 336 336 335 335 335 335 335 336 336 334 334 334 334 334 334 335 333 333 334 334 333 332 332 331 332 332 331 332 333 334 335 335 334 334 334 334 333 332 331 328 327 327 326 326 326 325 325 325 323 322 321 321 320 320 320 319 318 317 318 318 318 318 319 319 319 319 320 321 321 321 319 318 317 315 312 311 310 309 309 309 312 314 314 315 315 315 316 316 316 316 317 317 317 317 317
335 335 334 333 330 331 334 333 334 336 334 333 334 332 333 334 334 334 333 333 334 333 332 332 332 331 332 332 332 331 332 334 335 335 335 335 335 334 331 330 328 327 327 326 326 326 325 325 324 324 322 321 321 320 320 320 319 319 318 318 317 318 318 318 319 319 319 319 320 321 321 320 319 318 316 314 312 310 308 308 307 308 311 312 312 313 314 315 316 317 317 316 316 316 316 316 316
336 332 330 331 328 330 336 333 333 335 333 333 335 332 332 333 333 333 332 333 334 333 332 332 332 332 332 332 332 331 332 334 335 335 335 335 334 332 329 328 328 327 327 326 326 325 324 324 324 322 321 321 321 320 319 320 319 318 318 317 318 318 318 318 319 319 319 320 320 321 321 320 319 318 315 313 311 309 307 306 306 307 310 310 311 312 312 314 315 316 317 316 315 315 315 315 315
334 330 327 328 327 330 335 333 332 334 333 334 336 334 333 332 332 332 332 333 333 332 332 333 332 332 331 332 332 332 331 332 334 335 335 335 333 330 329 328 328 327 326 326 325 324 324 323 323 322 321 321 320 319 319 319 318 318 317 317 318 318 318 318 319 319 320 320 320 321 321 320 318 317 315 312 311 308 306 306 306 307 309 310 310 311 311 314 315 316 317 316 315 314 314 314 314
330 330 328 329 329 329 332 334 333 332 333 336 335 335 334 332 332 333 332 332 332 331 332 332 332 331 331 331 332 332 331 331 333 334 336 335 332 329 329 328 327 327 326 325 325 324 323 323 322 322 321 321 319 318 319 318 318 318 317 318 318 318 319 319 319 320 320 320 321 320 320 319 318 317 314 311 310 307 306 306 306 307 309 310 311 310 311 314 315 315 316 316 315 314 313 313 312
328 329 327 328 329 329 331 335 334 332 333 335 335 335 334 331 331 332 332 331 332 331 331 331 331 331 331 331 331 331 330 330 332 333 335 335 331 329 329 328 327 327 326 325 324 323 323 322 322 322 321 320 319 319 319 318 317 317 317 318 318 318 319 319 319 320 320 320 320 320 320 319 318 316 313 310 308 307 306 306 307 307 308 310 311 310 311 314 315 314 314 315 315 314 313 312 311
329 330 329 328 328 329 332 335 334 333 334 335 335 334 334 331 331 332 331 331 331 330 330 331 331 331 330 330 330 330 329 330 331 332 334 334 331 330 329 328 327 326 326 325 324 323 323 322 322 321 321 319 318 318 318 318 316 316 317 317 318 318 319 319 320 320 320 320 320 320 320 319 317 315 312 309 308 307 306 306 307 308 308 309 310 310 311 313 315 315 314 313 313 312 312 311 311
330 330 330 329 329 329 333 335 333 333 335 335 335 333 333 331 330 331 331 331 331 330 331 331 331 331 331 330 330 330 329 331 331 331 332 333 331 330 329 328 327 326 325 324 323 323 322 321 321 321 320 318 316 317 318 317 316 317 317 318 319 318 319 319 320 320 320 321 320 320 319 318 316 314 310 308 308 307 306 306 307 308 308 308 309 309 310 312 313 314 314 312 312 312 311 311 311
330 330 329 328 329 330 333 334 333 333 335 334 334 334 333 332 330 330 330 331 331 330 331 332 332 332 331 331 331 330 330 331 331 332 332 332 331 329 328 328 327 326 325 324 324 323 321 320 320 321 320 317 316 316 317 317 317 317 317 318 318 319 319 319 320 321 320 320 320 320 319 317 315 313 310 308 306 306 306 306 306 308 308 309 309 308 309 311 312 313 313 312 311 312 311 311 312
329 329 328 326 329 331 332 334 334 333 334 334 333 333 333 333 331 331 330 330 330 330 330 331 331 332 332 332 332 331 331 331 331 332 332 331 330 329 328 328 327 326 325 324 324 323 321 320 320 320 320 318 316 316 317 318 318 318 318 318 318 319 320 320 320 320 320 320 320 319 319 317 315 313 310 307 305 306 307 306 306 307 308 308 308 308 308 309 310 312 312 312 311 310 310 310 311
329 328 325 324 328 331 330 332 335 334 334 335 335 333 334 336 332 331 331 329 331 330 330 331 331 331 332 331 332 331 332 332 331 331 332 331 330 329 329 327 327 326 325 324 324 323 321 321 320 319 319 319 318 316 317 318 319 319 319 319 319 320 321 321 321 321 320 320 319 319 318 316 314 313 310 307 305 305 306 306 306 306 307 307 307 308 307 307 308 309 310 312 312 310 310 310 310
328 328 326 325 328 330 330 333 334 334 334 334 334 330 332 336 334 333 331 329 330 330 330 331 331 331 331 331 332 331 331 332 331 331 331 331 330 330 330 328 327 327 326 325 324 323 321 321 320 319 318 319 318 317 317 319 319 319 319 319 320 320 321 321 321 321 320 320 319 319 317 316 314 313 311 308 306 305 306 306 306 306 306 307 307 307 307 306 305 306 308 309 311 311 309 308 308
327 327 328 328 329 331 332 334 334 332 331 334 333 329 331 334 334 334 332 330 330 330 330 330 330 330 331 331 331 331 331 330 331 330 331 331 331 331 330 329 328 327 327 326 324 323 321 320 320 319 319 319 319 318 318 318 318 319 319 319 319 320 320 321 321 320 320 320 319 319 317 316 314 313 311 309 307 306 305 306 306 306 306 307 307 307 306 304 303 304 306 307 308 309 309 307 306
325 326 329 330 331 332 333 333 332 328 329 334 333 329 330 332 331 334 334 332 332 331 330 330 330 329 329 330 331 331 331 330 330 330 330 331 331 331 331 329 329 328 327 326 325 324 322 321 320 320 319 319 319 319 319 318 318 319 319 318 319 319 320 321 321 321 320 320 320 319 317 316 314 313 311 310 307 306 306 306 306 306 305 306 306 306 305 304 302 303 305 305 306 308 309 308 307
326 327 330 331 332 333 334 333 330 328 328 331 331 330 328 326 329 335 334 333 333 332 332 331 330 329 329 330 331 331 331 330 330 330 330 331 331 331 331 330 329 328 327 326 326 324 322 321 320 320 319 319 320 319 318 318 318 318 318 318 319 319 320 321 322 321 321 321 320 319 318 316 315 313 312 311 308 307 307 306 306 306 305 305 304 305 304 304 303 302 303 304 305 307 308 308 308
329 329 330 331 332 334 333 332 330 329 328 327 329 329 327 325 329 334 334 334 334 333 333 332 331 331 330 330 330 330 330 330 330 329 330 332 331 331 331 330 329 328 328 327 326 325 323 322 321 320 320 319 320 320 318 317 318 318 318 318 319 319 320 321 321 321 321 321 321 320 318 317 315 314 312 311 309 308 307 307 306 305 305 304 303 303 303 303 304 303 303 304 304 304 306 306 306
330 330 331 332 332 333 333 332 329 329 329 326 327 328 326 326 329 331 333 333 333 334 333 331 331 331 331 331 330 330 330 330 329 329 331 332 331 331 331 330 330 329 328 327 327 325 324 323 321 320 320 320 320 320 318 318 318 318 318 318 319 320 320 321 321 322 322 322 322 321 319 318 316 314 313 312 310 309 308 307 305 304 304 304 303 303 303 303 303 303 303 303 303 303 303 304 304
329 331 331 331 331 332 331 330 329 328 328 325 326 327 326 327 328 329 332 333 332 334 333 332 332 330 331 331 331 330 330 330 329 329 331 332 331 331 331 330 330 329 329 328 327 325 324 323 322 321 320 320 320 320 318 318 318 318 318 318 319 319 320 321 321 322 322 322 322 321 321 319 317 315 314 313 311 310 308 307 306 305 304 304 304 304 303 303 303 303 302 302 302 303 303 303 303
330 331 330 328 328 329 329 328 328 327 325 325 326 327 328 326 325 327 332 332 331 332 332 333 332 330 330 330 330 330 330 330 329 329 330 331 332 332 331 331 330 330 329 328 327 325 324 323 322 321 320 320 320 320 319 319 318 318 318 318 319 319 320 320 321 322 322 322 322 322 321 320 318 316 315 314 313 311 309 307 306 305 305 305 305 304 303 303 303 303 303 302 302 302 302 303 303
331 329 326 324 323 324 325 324 324 323 324 327 327 327 328 326 324 328 331 330 330 331 331 332 332 331 331 330 329 329 329 329 329 329 329 330 333 333 332 332 331 330 330 329 327 325 324 323 321 321 321 321 321 320 320 319 318 318 318 319 319 319 320 320 320 321 321 321 322 322 322 321 320 317 316 315 314 312 309 308 307 306 306 305 304 304 303 303 304 303 303 302 301 301 301 301 301
329 326 323 322 322 323 324 322 322 323 325 328 329 328 327 324 325 329 330 329 330 330 331 331 331 332 331 330 329 328 329 328 328 329 328 330 333 334 333 333 332 331 330 329 327 326 325 323 322 321 321 321 321 320 320 319 319 318 318 319 319 319 319 320 320 320 320 321 322 322 322 322 321 319 317 316 314 312 310 309 308 307 306 305 304 304 304 303 304 303 302 302 302 301 301 301 301
328 328 325 322 321 323 323 321 321 322 323 326 329 328 322 321 328 330 328 328 329 328 329 331 331 331 331 330 329 328 328 328 328 329 329 331 334 333 333 333 332 331 331 330 328 326 325 323 322 321 321 321 320 320 320 319 319 319 318 319 319 319 319 319 320 320 320 321 321 322 322 322 322 320 319 316 313 313 311 309 308 307 306 305 305 304 304 304 304 303 303 303 303 302 302 301 301
328 328 326 322 323 323 321 323 324 323 323 323 325 324 320 323 329 328 328 328 328 328 328 330 331 330 331 330 330 329 328 328 328 329 329 331 334 333 333 333 332 331 331 330 329 327 326 324 322 321 321 321 320 320 320 319 319 319 319 319 319 319 319 319 320 321 321 321 321 322 322 322 322 321 319 316 314 313 311 309 308 307 306 306 305 304 304 304 304 304 303 303 303 302 302 302 301
327 325 323 324 326 324 321 323 326 325 323 320 319 319 320 325 328 327 328 329 329 330 328 329 331 331 331 331 330 330 329 329 329 329 329 331 333 333 333 333 332 331 330 330 329 327 326 325 322 321 321 321 320 320 320 319 319 319 319 319 319 320 320 320 320 321 321 321 321 321 322 322 323 321 318 316 315 313 311 310 309 307 307 306 305 304 304 304 304 304 304 304 303 302 302 302 302
326 323 323 325 327 327 322 321 322 321 320 318 317 317 317 320 323 326 328 329 330 331 329 330 332 331 332 332 331 331 330 330 329 329 330 331 333 333 333 333 332 331 330 329 328 327 326 325 322 321 321 321 321 320 320 319 319 320 320 319 320 320 320 320 320 320 321 321 321 322 322 323 323 322 318 316 315 314 312 310 309 308 307 306 305 304 304 304 304 304 304 304 303 303 303 302 302
326 325 326 324 323 324 321 319 319 319 319 318 317 317 316 316 319 323 328 329 330 331 330 331 332 332 332 332 332 332 331 331 330 329 329 331 333 333 333 333 332 331 330 329 329 327 326 324 321 321 322 321 320 320 320 320 319 320 320 320 320 321 320 320 319 320 321 321 321 322 323 323 324 321 318 317 315 314 313 311 310 309 307 306 305 304 304 304 304 304 304 303 303 303 304 303 302
325 325 326 324 322 322 320 319 319 318 318 318 317 316 317 318 321 324 327 329 330 331 331 331 331 332 331 331 332 332 332 332 331 330 329 330 333 333 333 333 332 331 330 329 328 327 326 324 321 321 322 322 321 320 321 321 321 320 320 320 321 320 319 320 319 320 321 321 321 322 323 324 324 321 318 317 316 314 313 312 311 309 308 306 305 304 304 304 304 304 304 304 303 303 303 303 303
323 322 322 323 322 321 321 320 318 317 317 318 318 317 316 319 324 326 327 328 329 330 331 331 330 331 331 332 332 332 332 332 332 331 329 331 333 333 332 332 331 331 330 329 328 327 325 324 322 321 322 322 321 321 322 322 322 321 321 321 321 320 319 319 320 320 321 321 322 323 323 324 324 321 319 318 316 315 315 313 312 310 309 307 306 305 304 304 304 304 304 304 303 303 303 303 303
324 323 321 322 322 320 320 320 319 317 316 317 318 317 316 321 325 325 325 327 327 328 329 330 330 331 332 333 334 333 333 334 333 331 330 331 333 333 332 332 331 330 330 328 328 327 325 323 322 321 322 322 321 322 322 322 322 321 321 321 320 320 320 320 320 321 322 322 323 324 324 324 324 321 319 318 317 316 315 314 312 311 310 308 307 305 304 304 304 304 304 303 303 302 302 302 303
Wind_Speed
9 8 8 8 7 7 7 6 4 4 5 3 3 3 4 3 5 7 7 5 4 4 4 4 5 5 4 4 7 8 9 8 6 4 3 5 6 10 11 11 9 9 9 9 9 9 9 9 9 8 8 9 9 9 9 9 9 9 9 9 9 9 9 9 9 9 9 9 9 9 8 8 8 8 8 8 8 8 7 7 7 7 7 7 6 7 6 6 6 6 6 6 6 6 7 7 7
7 7 7 8 8 8 4 4 4 4 5 3 4 2 6 6 6 6 6 4 5 5 4 5 6 7 6 6 6 5 9 10 8 6 6 9 12 12 10 11 9 9 10 8 8 9 8 8 9 7 7 9 10 10 9 9 9 9 9 9 9 9 9 9 9 9 9 9 9 9 9 8 8 8 7 7 7 7 7 7 7 7 7 7 7 6 5 5 5 6 6 6 6 6 6 6 7
7 7 9 8 8 7 2 4 5 3 5 4 4 4 7 7 6 6 6 7 7 6 5 5 5 5 2 3 4 4 6 8 8 6 8 8 8 8 9 11 9 9 9 7 8 8 7 7 9 8 7 8 9 9 9 10 10 9 9 8 8 8 9 10 10 9 9 9 9 8 8 8 8 8 8 8 8 8 7 7 7 7 7 7 7 6 6 4 4 5 5 5 5 5 5 5 7
8 8 9 9 7 6 5 4 4 3 4 2 4 6 7 6 8 8 8 8 6 4 3 4 4 4 4 2 3 3 6 7 7 5 6 5 6 9 11 10 9 9 9 8 8 8 7 6 8 9 9 9 9 9 9 9 8 8 8 8 8 9 9 9 9 9 9 9 9 8 8 8 9 9 9 9 9 9 8 8 8 8 8 8 7 7 7 6 5 5 5 6 6 5 5 5 6
8 8 8 8 5 3 4 3 2 4 2 1 3 7 7 7 9 9 9 7 4 2 3 2 3 3 4 7 3 1 5 7 8 7 6 7 9 13 11 9 9 9 10 9 7 7 7 7 9 9 9 10 10 9 9 9 9 9 9 9 9 9 9 9 9 9 9 9 8 8 8 9 9 9 10 10 10 10 9 8 8 8 8 8 7 7 7 7 6 6 6 6 6 6 6 6 7
8 8 8 8 4 1 4 3 3 2 3 3 3 8 8 9 9 10 8 6 4 3 2 1 2 5 5 7 5 6 5 3 6 6 6 8 10 12 12 9 8 10 10 9 8 7 7 8 9 9 10 11 10 9 8 10 10 9 9 9 10 10 9 10 9 9 9 9 9 9 9 9 10 9 9 9 10 10 10 9 9 9 8 8 7 7 7 7 7 6 7 6 7 7 8 8 8
9 8 7 7 3 3 5 3 2 3 4 3 5 10 9 10 9 9 8 5 4 3 2 1 2 4 5 4 5 8 7 4 5 6 7 10 11 12 12 9 9 10 10 10 8 7 7 8 8 9 11 11 9 8 8 9 9 9 10 10 10 10 9 10 10 10 9 9 9 9 9 10 9 9 9 9 10 11 11 10 9 9 8 8 8 8 8 8 8 7 7 7 8 8 9 9 10
9 6 4 6 4 4 4 2 1 3 4 2 6 11 10 11 9 8 7 4 3 3 3 4 1 1 5 2 3 7 6 7 9 9 10 12 12 10 10 8 8 10 9 9 8 7 8 8 9 10 11 10 8 8 8 8 8 9 10 10 10 10 10 10 10 10 9 9 9 9 9 9 9 9 9 10 11 11 11 10 9 8 8 8 8 8 8 8 8 8 8 9 9 9 10 11 11
9 7 3 5 4 4 3 3 4 4 6 6 7 9 9 10 7 6 5 3 3 4 4 4 1 1 6 4 5 7 5 8 10 11 10 11 11 9 9 8 8 9 9 9 7 8 8 7 8 10 10 10 8 8 8 8 8 9 10 10 11 12 11 10 9 9 9 9 8 9 9 9 10 11 11 11 11 12 12 12 12 10 9 9 9 8 8 8 8 8 8 9 9 10 10 10 11
8 6 4 4 4 4 4 4 5 5 7 8 8 9 9 8 6 5 4 4 4 5 6 2 2 3 6 5 6 5 4 8 10 10 9 10 10 9 9 8 9 9 9 9 9 9 9 8 8 10 10 9 8 8 8 8 8 8 10 10 11 12 11 10 9 8 8 8 8 9 9 9 10 11 12 12 12 12 13 13 13 13 12 11 11 10 9 8 7 7 7 8 8 9 9 9 10
5 4 4 4 5 4 4 5 6 7 8 8 9 9 8 7 6 5 3 5 4 4 5 1 2 6 6 6 4 3 5 9 10 10 10 11 10 9 9 9 9 8 9 10 10 10 9 8 8 10 10 9 9 8 8 8 8 9 9 10 10 10 11 10 8 8 8 8 8 8 8 9 9 10 11 11 11 11 11 11 11 12 12 12 12 11 11 10 9 8 7 6 7 7 7 8 9
5 6 5 5 4 2 3 5 7 8 9 9 10 8 6 6 5 5 5 5 5 5 5 0 2 3 4 6 4 5 7 8 10 11 12 11 10 9 9 10 9 8 9 10 10 10 9 9 8 9 9 9 9 9 8 9 9 9 10 10 10 10 10 9 8 8 8 9 9 9 8 8 8 9 9 10 10 10 10 10 10 10 10 10 10 11 11 10 9 8 7 6 6 6 6 7 8
5 6 6 4 1 1 4 5 8 8 8 9 9 7 5 6 5 4 4 5 5 5 5 3 3 1 2 6 5 7 7 8 11 13 13 11 9 10 10 11 10 9 9 9 10 10 10 10 9 9 9 9 9 8 8 9 9 9 10 11 11 11 9 8 7 8 8 9 9 8 7 7 8 8 8 9 9 9 9 9 9 9 9 9 9 9 9 9 9 8 7 6 5 5 5 5 7
4 4 5 3 2 3 5 5 8 8 7 8 8 7 5 3 2 2 3 5 4 3 5 3 2 0 3 5 5 7 7 10 12 12 13 10 9 10 11 11 10 9 8 8 9 9 10 10 10 9 9 9 9 9 10 10 9 10 11 10 10 10 8 7 7 8 8 7 7 6 6 7 8 8 9 9 9 9 9 9 10 10 10 9 9 8 7 8 8 8 7 6 5 4 4 5 6
3 3 4 3 4 5 5 5 9 8 7 10 9 9 6 3 1 2 1 1 4 5 3 3 4 1 1 2 4 8 11 13 13 12 12 10 10 10 11 10 10 9 8 8 8 8 9 9 9 8 8 9 9 9 10 10 10 10 10 9 9 8 7 7 8 8 8 8 7 7 7 7 8 9 9 9 9 10 10 10 10 10 10 10 9 8 7 6 6 7 7 6 5 4 5 5 7
3 3 4 4 5 6 5 6 9 7 7 11 9 9 8 5 1 2 4 3 5 4 1 4 5 2 3 4 7 13 15 15 14 14 13 11 11 10 10 10 9 8 8 8 8 8 8 8 8 8 8 8 9 9 10 10 10 11 10 9 8 7 7 8 8 8 8 8 8 8 8 8 9 9 9 10 10 10 10 10 11 11 11 10 9 8 6 6 5 6 6 6 5 5 6 7 8
3 5 5 4 5 5 6 7 6 4 9 11 11 10 8 7 2 3 2 1 5 5 3 5 4 4 5 7 11 14 15 15 15 14 13 11 10 10 10 9 9 8 7 8 7 7 7 7 7 8 8 9 10 10 10 10 11 11 10 9 8 7 8 8 8 8 8 8 8 8 8 8 8 9 9 9 10 10 11 11 11 11 11 10 10 8 6 5 5 4 5 5 5 6 9 9 9
5 5 5 4 4 4 6 8 4 5 12 12 11 11 8 8 6 5 5 3 5 5 5 5 5 5 6 10 12 13 13 14 13 12 12 11 10 9 9 9 8 8 7 7 7 7 6 7 7 8 9 10 11 10 10 10 10 10 9 9 8 8 7 7 7 7 7 6 7 8 8 8 8 9 9 9 9 10 11 11 11 11 11 10 10 8 7 5 5 4 4 5 5 5 8 8 9
5 4 5 3 4 6 6 8 5 4 11 12 12 10 7 8 7 6 6 5 6 5 5 5 5 7 8 11 12 12 12 12 11 10 10 10 10 10 9 8 8 8 8 8 8 7 7 8 8 9 10 11 11 10 10 9 9 8 8 8 7 7 6 6 5 5 5 6 6 7 7 8 8 9 10 10 9 9 10 11 11 11 10 10 10 10 9 7 7 6 5 5 5 4 4 5 7
4 4 4 4 7 9 6 7 5 3 10 13 12 9 7 8 6 4 5 5 6 5 4 5 5 7 9 11 11 11 11 11 10 9 10 9 9 10 9 9 9 8 7 8 9 8 8 9 9 10 11 10 9 9 8 8 8 7 7 6 6 5 4 4 4 5 6 6 6 7 7 7 7 8 9 9 8 8 8 9 10 10 9 9 10 9 8 8 7 6 5 5 4 3 2 3 5
2 3 1 8 9 9 7 6 6 4 9 11 11 10 8 7 5 4 5 5 5 4 3 2 4 9 11 11 10 10 9 10 10 10 10 9 9 9 9 9 8 8 7 8 10 10 9 9 9 10 10 9 8 7 7 7 7 6 6 5 5 4 3 3 4 5 6 6 6 7 7 7 7 7 8 8 8 8 7 7 8 8 8 8 9 8 8 8 7 6 5 4 3 4 3 3 4
2 2 5 10 8 8 7 5 7 5 8 10 11 10 8 7 5 5 5 4 1 2 4 2 4 9 11 11 9 8 8 9 9 9 9 9 9 8 9 8 8 9 7 8 10 10 9 9 9 9 9 8 7 7 6 7 6 5 5 4 3 3 3 3 4 6 7 7 6 6 7 7 7 8 9 9 8 8 7 7 7 7 7 8 8 8 8 8 7 7 6 5 4 4 4 3 4
2 5 6 7 5 7 7 5 6 5 7 9 9 9 8 8 5 4 3 1 4 4 3 3 6 9 11 11 9 8 8 8 8 8 8 9 10 9 9 9 9 9 8 8 9 9 9 9 9 9 9 8 7 6 6 6 5 5 5 4 4 3 4 5 6 7 8 8 7 7 7 7 8 8 9 9 9 8 8 7 7 6 6 7 7 7 8 7 7 7 7 6 5 5 4 3 3
2 7 7 6 6 8 7 6 6 5 7 8 9 9 8 8 5 4 3 4 3 3 3 5 9 11 10 9 9 8 8 9 8 7 7 8 9 10 9 9 9 8 8 10 10 9 9 9 9 9 9 8 7 6 5 5 5 5 4 4 5 5 6 7 8 8 8 8 8 8 8 8 9 9 10 10 10 9 8 8 7 7 6 7 7 7 7 7 7 7 6 6 5 5 5 4 3
4 8 7 7 8 8 8 8 9 8 8 8 9 8 5 5 4 4 4 4 2 4 5 7 9 10 10 9 9 8 7 8 8 7 6 7 9 10 9 9 8 8 9 11 10 10 10 10 10 10 9 8 7 5 4 5 4 5 5 5 6 7 7 8 8 8 8 9 9 9 9 9 10 10 10 10 10 10 9 8 7 7 7 6 6 6 6 6 6 6 6 6 6 6 6 5 5
7 9 8 9 9 9 9 9 10 9 7 7 8 7 4 4 4 4 5 3 3 5 7 7 8 9 9 9 9 8 7 8 8 7 7 8 10 11 10 10 9 9 10 11 11 11 11 10 10 10 9 7 6 5 5 5 4 5 6 7 8 8 9 9 9 9 9 10 10 10 11 11 11 11 11 11 10 10 9 9 8 8 7 7 6 6 6 6 6 6 6 6 6 6 7 6 6
10 12 11 11 10 8 8 9 9 8 6 5 6 6 6 4 4 3 6 4 4 7 7 7 8 8 9 8 8 8 7 8 8 8 9 10 10 11 11 10 10 10 11 11 11 11 10 10 10 9 8 7 7 6 5 5 5 5 6 8 8 9 9 9 9 9 10 10 10 10 11 11 11 12 12 11 11 10 9 9 8 8 7 7 6 6 5 5 6 6 6 6 7 7 7 6 6
13 14 12 10 10 8 7 8 8 6 5 3 5 6 6 5 5 2 7 6 5 8 8 8 8 8 8 8 7 7 7 8 8 8 10 11 10 10 11 11 11 12 12 12 11 11 11 11 10 9 8 8 7 6 6 5 5 7 7 8 9 10 10 9 9 10 10 10 10 10 10 10 11 12 12 12 11 11 10 9 9 8 8 7 7 6 5 5 5 6 6 6 6 7 7 7 7
13 12 11 10 9 8 6 7 6 4 4 5 6 6 6 7 4 4 7 5 6 8 8 8 7 7 8 7 6 6 7 8 8 9 11 11 11 11 11 12 13 13 12 12 12 12 12 11 10 9 9 8 7 6 5 5 6 7 8 10 10 10 9 10 10 10 10 10 9 10 10 10 11 11 12 12 11 11 11 10 9 8 8 7 6 6 5 4 4 5 5 5 6 6 7 7 7
10 8 7 8 6 6 6 6 6 5 5 6 5 4 5 6 6 7 7 6 7 8 8 7 6 7 7 6 6 6 7 8 9 11 12 11 11 11 12 13 14 12 12 12 13 13 12 11 10 9 9 8 7 6 5 6 8 9 10 11 11 10 10 11 11 10 10 9 9 9 10 11 11 12 12 12 11 10 11 10 10 9 8 7 6 6 5 4 4 4 4 5 5 6 7 7 8
8 6 5 5 4 5 8 6 7 7 6 6 6 4 3 6 7 8 7 7 8 8 8 7 6 7 7 6 6 7 7 8 10 11 12 12 11 12 14 14 13 12 13 13 13 12 12 11 11 10 9 8 7 7 7 8 10 10 10 11 11 11 12 12 11 11 10 10 9 9 10 11 11 12 12 12 11 11 11 11 10 9 8 7 6 6 5 4 4 5 5 5 5 6 7 8 9
5 5 5 5 3 6 8 7 7 7 7 7 6 3 3 6 8 8 7 8 8 8 8 8 7 8 8 7 6 6 7 9 11 12 13 13 12 13 15 14 13 13 13 14 13 12 12 12 11 11 9 8 8 7 8 10 11 10 11 12 12 12 12 12 11 11 10 10 10 9 9 10 11 12 13 12 11 11 10 10 10 9 8 7 7 7 6 5 5 5 6 5 6 7 8 9 9
5 5 3 4 4 5 7 8 8 6 7 8 7 3 2 5 8 9 8 9 8 7 8 8 7 8 8 8 7 7 8 9 11 12 14 13 12 14 15 14 14 13 14 14 14 13 12 12 12 11 9 9 9 9 11 12 11 11 12 13 13 12 12 12 11 10 10 10 10 9 9 10 10 11 12 11 11 11 11 10 10 9 8 8 8 8 7 6 5 5 6 6 7 8 9 10 10
5 5 2 4 5 5 6 7 9 8 7 8 8 4 2 5 8 9 9 8 8 8 8 8 7 8 8 8 8 8 9 10 11 14 15 13 13 15 15 15 14 14 14 14 14 13 13 13 12 10 9 9 9 10 12 12 12 12 13 13 12 12 11 11 11 11 10 10 9 9 9 9 10 11 12 11 11 11 11 10 10 9 8 8 8 8 8 7 6 6 7 7 7 8 9 9 10
4 4 3 4 5 6 6 5 9 11 9 6 7 5 2 5 7 9 9 8 8 8 8 9 9 9 8 9 10 10 10 10 11 14 16 15 15 16 15 15 14 14 14 14 13 13 13 12 11 11 10 9 10 12 13 13 13 13 13 13 12 12 11 11 11 11 10 10 9 9 9 9 9 10 11 12 12 11 11 11 10 10 9 9 9 9 8 8 8 7 7 8 8 8 9 9 9
5 4 4 4 5 5 5 5 8 12 9 7 6 4 4 6 7 8 9 8 8 8 8 8 9 10 9 9 9 9 10 10 12 15 16 16 16 16 15 15 14 13 13 14 14 13 13 13 12 11 10 10 11 13 13 13 13 13 13 12 11 11 11 11 10 10 10 9 9 9 9 9 9 10 11 12 12 11 11 11 11 10 9 9 10 10 9 8 8 8 8 8 9 9 9 9 9
5 4 4 4 4 5 5 6 9 10 7 5 5 3 4 6 8 10 9 9 9 9 9 9 9 10 9 9 9 10 10 10 13 16 16 16 16 16 15 15 14 14 14 14 14 14 13 13 12 11 10 10 11 12 13 13 13 13 12 12 12 11 11 10 10 9 8 8 8 8 8 8 9 11 12 12 12 11 11 11 11 11 10 10 11 11 10 8 7 7 7 7 7 8 8 7 6
4 3 4 4 3 4 6 5 8 9 6 4 5 4 5 6 7 10 10 10 10 10 11 10 10 10 9 10 11 10 9 10 13 15 16 17 16 17 15 15 15 15 15 15 14 13 12 13 13 12 11 10 10 11 12 12 12 12 12 12 12 11 10 10 10 8 7 7 7 7 8 8 9 10 11 12 12 11 11 11 11 10 10 10 10 11 10 9 7 6 6 6 6 6 6 5 3
3 3 3 3 4 5 6 5 7 8 5 3 6 5 4 7 7 9 10 10 9 10 11 11 11 11 10 11 11 11 10 11 13 14 16 17 16 17 15 15 16 15 16 15 14 14 13 13 13 12 10 10 10 11 12 12 11 11 11 11 11 10 9 8 8 7 6 7 7 7 8 8 9 9 10 11 12 12 11 11 11 11 11 10 10 10 11 10 8 6 5 4 5 5 5 4 4
3 2 2 4 6 5 4 5 8 8 4 1 4 5 4 7 7 8 10 10 8 9 11 10 11 11 11 12 11 12 12 12 13 14 15 16 16 16 16 16 16 16 16 15 14 15 13 12 12 11 11 10 10 11 11 12 11 10 10 10 9 9 7 6 7 6 6 6 6 6 7 8 8 9 10 10 11 12 11 10 11 12 12 11 11 10 10 10 9 7 5 4 3 3 4 4 5
2 2 1 3 6 4 2 7 8 7 6 4 4 6 5 8 9 9 9 10 10 10 11 11 11 12 11 12 12 13 13 13 14 14 14 15 16 16 16 17 17 16 16 16 16 15 13 12 12 11 11 11 10 11 11 12 12 12 11 10 9 8 7 7 7 6 5 5 5 6 6 7 7 8 9 9 10 11 11 10 10 12 12 11 10 10 10 10 9 8 7 6 4 3 4 4 6
3 3 0 2 5 4 6 9 8 5 6 5 5 5 3 8 10 10 10 11 12 12 13 14 13 13 12 12 13 13 13 13 14 15 15 16 17 17 17 17 17 17 16 16 17 16 14 12 12 12 12 12 11 12 12 12 12 11 11 11 10 9 9 8 7 6 5 5 5 5 5 6 6 7 8 9 10 10 10 11 10 11 11 11 10 9 10 10 10 9 8 7 7 6 4 5 6
3 4 1 3 5 5 7 9 6 2 1 4 5 5 0 5 9 11 12 13 14 13 14 15 15 14 14 13 13 13 13 13 13 14 15 16 17 17 18 18 18 17 16 16 16 16 15 13 13 12 12 13 12 12 13 12 11 12 11 11 11 10 9 8 5 5 5 4 4 4 4 5 5 6 7 8 9 9 9 10 10 10 10 10 10 10 10 10 10 10 9 9 8 6 5 5 6
2 4 4 6 6 6 7 6 4 1 1 4 6 5 4 3 6 10 13 13 14 15 15 15 15 16 16 15 14 14 14 13 13 13 14 15 17 18 18 18 18 17 16 16 16 16 16 14 13 13 13 13 13 13 13 12 11 12 13 11 11 10 9 7 5 5 5 4 4 4 3 4 5 5 6 7 7 8 8 9 9 9 9 9 10 11 11 10 10 10 10 10 9 8 7 6 6
4 5 5 6 6 5 5 4 1 1 2 4 5 3 5 1 6 9 12 12 13 15 16 17 17 17 17 16 16 16 15 15 14 14 14 16 18 18 18 18 18 18 17 16 17 17 16 15 14 14 14 14 13 13 13 13 12 13 13 12 11 10 8 7 6 6 5 5 4 3 3 3 4 4 5 6 7 7 7 7 8 8 8 8 9 10 11 11 11 10 10 10 10 9 9 8 8
6 7 6 6 5 4 3 2 1 1 3 0 4 3 5 0 5 7 9 10 12 13 14 16 17 18 17 17 17 16 15 15 14 14 16 18 19 19 18 17 17 18 17 17 17 17 17 16 14 14 15 14 14 14 14 13 13 13 13 13 12 11 9 7 7 6 5 5 4 4 3 3 3 3 4 5 6 6 6 6 6 7 8 8 9 10 10 11 10 10 10 10 10 10 9 9 9
10 9 7 7 4 3 2 1 1 3 2 3 3 2 4 2 4 6 6 7 9 10 11 14 16 18 18 16 16 16 15 14 14 14 16 18 19 19 18 17 17 17 17 17 18 17 17 16 15 15 16 15 15 15 14 14 14 14 13 13 12 11 9 8 7 7 6 5 5 4 4 3 3 3 3 4 5 5 5 5 6 6 7 8 8 8 9 9 9 9 9 9 10 10 9 9 9
9 6 5 4 3 3 3 2 3 3 2 4 2 1 4 3 1 3 5 6 7 8 9 14 18 18 18 16 16 16 15 15 14 14 15 17 18 19 19 18 18 18 17 18 19 18 17 17 15 15 16 16 16 16 15 15 15 14 14 13 12 11 10 9 8 7 6 6 5 5 4 4 3 3 3 3 4 4 4 5 5 5 6 6 7 7 8 8 8 8 8 8 9 9 9 9 9
5 3 4 3 1 2 2 2 2 1 3 3 0 2 4 3 2 2 4 6 6 6 6 11 16 18 18 17 17 15 15 15 14 14 14 14 16 18 19 18 18 18 18 19 19 18 17 17 16 15 16 17 17 17 17 15 15 15 14 13 12 11 10 9 9 7 7 6 4 4 5 4 4 4 4 3 3 3 3 3 4 4 5 6 6 7 7 8 8 8 8 8 8 9 9 9 9
5 3 3 3 1 0 1 1 1 1 3 3 1 3 3 2 2 2 2 3 4 5 6 7 12 16 18 18 17 16 15 16 14 14 14 13 15 18 19 19 18 18 19 20 20 20 18 17 17 16 16 17 17 17 18 17 16 15 15 14 13 12 11 10 10 8 7 6 4 4 4 4 5 5 5 5 5 4 2 3 3 4 5 6 6 7 7 7 7 8 8 8 8 8 8 8 8
3 1 2 3 1 2 2 2 2 3 2 2 3 3 3 1 2 2 2 2 3 4 6 7 9 13 15 17 17 17 16 16 14 14 14 14 16 19 19 19 19 18 19 20 20 20 19 17 18 18 17 18 18 18 19 18 16 16 15 15 14 12 11 11 10 9 7 6 5 4 4 4 4 5 6 6 6 4 3 4 5 5 6 6 6 7 7 7 7 7 7 7 7 6 6 6 6
2 1 2 1 2 2 2 3 4 4 3 1 2 3 2 3 0 3 3 3 4 4 7 9 9 11 13 15 16 16 15 15 14 14 14 15 18 19 19 19 19 18 19 20 20 21 20 18 18 18 18 18 19 19 19 18 17 16 16 16 14 13 11 11 11 9 8 7 5 5 5 5 5 5 7 7 6 5 5 5 6 6 6 6 6 6 6 6 6 7 6 7 6 6 6 6 6
3 3 1 2 2 3 1 1 1 3 2 1 1 2 1 2 1 3 3 3 3 4 7 10 10 11 12 13 14 15 15 15 15 14 14 15 18 19 19 20 19 19 19 21 21 21 21 19 18 19 18 18 19 20 19 19 18 17 16 16 15 14 13 12 11 10 9 8 7 6 6 5 6 7 8 7 6 6 6 7 6 6 6 6 6 6 6 6 6 6 6 6 6 5 5 5 4
3 2 3 4 0 2 2 1 2 2 1 2 2 3 2 2 2 4 4 3 3 4 7 10 11 12 12 12 13 15 16 16 16 16 15 16 18 19 20 20 20 20 20 21 21 21 20 19 18 19 19 18 19 20 20 19 19 17 17 17 16 14 14 13 12 11 10 9 8 8 7 7 7 9 9 8 8 7 7 8 7 7 7 6 7 6 6 6 6 5 5 5 5 5 5 4 4
2 2 2 3 1 0 1 2 2 2 3 2 2 2 2 3 3 3 3 3 3 4 7 10 11 12 12 12 14 16 16 15 15 15 14 14 17 20 20 20 21 22 21 20 21 21 20 20 19 19 19 18 19 20 20 19 19 18 17 17 16 15 14 14 13 11 10 10 9 9 8 8 8 10 10 9 9 9 9 9 8 8 7 7 7 7 7 6 6 5 5 5 5 5 4 4 4
2 1 3 2 3 2 1 2 3 3 2 3 3 2 2 4 5 3 2 2 3 5 7 8 10 12 11 11 13 14 15 14 14 15 14 14 18 20 21 21 21 22 21 20 21 21 21 20 19 19 19 19 19 20 20 19 19 18 17 17 17 16 15 15 13 12 11 11 10 9 9 9 9 10 11 10 10 11 10 9 9 8 8 8 7 7 7 7 6 6 6 5 5 5 5 4 4
4 4 4 2 1 1 1 1 2 3 3 2 3 3 3 6 4 3 3 2 2 5 6 6 8 10 10 11 12 13 14 14 14 14 14 15 18 20 21 21 21 21 21 20 20 21 21 21 20 20 20 20 21 20 20 19 19 18 18 17 17 17 16 15 14 13 12 11 10 9 9 8 9 10 11 11 11 11 11 10 9 9 8 8 8 8 7 7 6 6 6 6 6 6 5 5 4
4 3 3 3 2 2 3 2 1 2 3 3 3 4 3 5 3 3 3 1 2 4 5 5 7 10 10 10 12 13 14 14 15 15 14 15 17 20 20 20 20 20 21 21 21 21 21 21 21 20 20 21 21 21 20 19 18 18 18 18 18 17 17 16 14 13 13 12 11 10 9 9 9 11 11 11 11 12 11 10 10 9 9 8 8 8 8 7 7 7 7 6 6 6 6 5 5
Wind_Direction
189 208 217 219 210 221 221 224 227 184 241 217 144 159 125 94 121 138 128 132 129 82 46 73 67 48 51 61 75 72 41 15 14 2 50 79 89 100 97 92 88 86 85 80 84 88 89 94 92 90 92 91 87 81 79 81 81 80 75 72 72 73 75 76 76 75 75 75 75 73 71 69 68 66 64 63 61 60 55 54 51 50 49 46 43 41 41 45 45 41 43 43 42 40 40 46 49
202 210 205 206 201 222 211 214 242 174 219 193 152 139 124 140 148 135 116 105 86 92 92 90 88 69 62 78 87 80 58 45 53 65 92 106 90 84 94 94 90 89 85 83 83 85 87 95 96 89 93 94 88 81 77 77 75 72 69 68 69 72 74 75 76 75 77 76 75 73 71 71 70 68 66 67 64 61 58 56 54 55 53 50 47 42 39 46 47 46 47 44 41 40 45 50 53
206 198 187 191 200 230 224 217 248 201 221 196 137 120 141 156 136 113 98 92 86 100 109 109 106 68 39 120 60 28 75 63 59 89 113 116 96 84 91 94 94 91 86 84 80 81 86 96 100 96 96 93 89 84 78 74 71 70 69 71 73 76 77 77 76 75 77 77 78 75 74 74 73 71 68 67 63 61 60 59 58 57 56 54 54 52 53 58 56 48 42 37 38 43 47 51 57
195 192 190 197 199 218 223 218 248 247 233 186 130 139 156 148 125 111 102 99 96 115 127 141 118 40 343 60 56 45 92 78 50 70 110 102 101 101 93 95 99 94 90 85 78 81 89 96 96 99 101 94 91 91 90 88 84 82 78 78 78 78 78 79 78 76 77 78 79 78 76 77 77 74 70 67 64 62 62 63 60 56 54 53 53 54 58 63 61 47 38 36 37 40 41 48 56
187 196 204 224 222 201 228 223 240 251 259 47 135 143 152 139 130 122 111 103 98 114 127 160 106 81 54 48 13 19 82 93 71 62 96 100 109 109 99 103 105 99 96 91 84 83 90 93 94 99 98 89 87 93 98 100 94 89 84 80 78 78 80 80 81 79 78 79 79 78 78 80 80 77 74 71 68 64 61 60 58 56 52 52 51 51 55 59 58 53 49 45 47 49 50 54 58
179 190 207 242 264 280 238 202 212 209 46 358 130 136 146 139 134 125 117 108 96 82 99 166 96 116 104 62 40 37 39 77 87 69 89 104 108 109 104 106 104 99 96 94 92 88 91 91 96 99 92 86 86 93 98 100 100 96 91 87 84 83 83 83 83 83 81 81 82 83 83 83 82 79 79 74 70 64 59 58 56 57 55 55 55 55 55 55 54 53 53 51 54 58 60 59 58
183 183 192 221 222 247 238 194 203 133 79 350 123 135 144 136 133 130 132 134 120 106 91 79 112 117 104 102 82 60 27 40 96 87 98 113 106 105 106 105 100 98 96 95 94 92 94 93 96 95 89 87 87 95 101 105 106 102 95 91 91 88 87 86 83 85 85 85 85 86 85 85 83 79 77 72 69 63 58 57 59 61 61 60 59 59 58 56 56 54 54 53 55 57 58 58 59
207 203 189 207 182 206 233 162 136 98 110 80 113 133 142 138 140 141 146 152 127 126 110 93 141 131 100 131 94 80 52 66 105 101 106 117 104 104 108 106 102 96 97 99 102 98 90 91 100 102 95 91 92 98 99 100 102 101 97 93 93 91 88 87 86 87 86 86 85 85 87 84 80 75 73 73 72 67 63 61 62 65 65 64 60 59 58 56 56 55 56 53 55 57 58 59 59
215 214 197 217 195 185 199 139 126 101 129 139 120 125 133 138 144 146 149 134 118 129 115 99 340 331 116 113 89 102 86 87 111 105 106 112 104 110 111 108 103 97 100 102 105 99 90 93 103 108 100 95 95 95 95 97 100 101 101 101 103 99 92 87 86 88 86 85 86 88 88 81 76 74 75 76 76 72 68 65 63 63 63 63 61 60 59 57 56 55 56 53 54 57 59 60 59
207 211 217 221 202 179 174 144 137 128 135 144 136 135 137 142 150 151 154 129 134 138 114 84 26 100 122 107 97 102 98 114 119 105 107 115 115 116 111 106 102 100 103 101 100 95 92 94 96 99 100 101 100 96 97 99 99 100 104 107 108 108 103 94 88 87 87 86 88 91 86 77 74 73 75 76 75 72 67 64 60 58 57 57 57 57 57 54 53 53 56 55 54 58 60 59 59
202 200 234 226 204 198 175 147 143 144 140 145 141 143 146 150 159 154 155 130 139 143 127 187 104 115 127 104 97 100 111 126 117 106 116 121 120 116 111 105 99 101 103 102 102 98 92 90 92 96 99 101 100 98 99 100 100 103 109 110 108 107 103 97 89 86 88 87 86 86 78 70 70 70 71 70 68 65 61 57 54 53 52 50 49 49 50 49 47 49 55 59 58 62 65 65 66
212 178 219 224 209 205 152 147 144 145 148 157 150 144 149 157 169 165 169 144 154 148 115 131 104 128 156 112 108 133 121 115 107 110 122 123 121 118 111 104 100 102 104 102 102 104 100 95 94 95 95 95 96 98 101 103 104 105 107 109 107 99 94 92 88 89 91 91 89 85 79 69 66 66 64 60 56 53 49 46 42 44 45 43 41 41 43 44 44 47 53 61 64 67 70 74 77
220 179 219 220 221 183 151 149 142 149 159 165 151 137 150 168 179 174 174 150 161 155 95 58 97 145 145 105 117 136 115 109 113 115 120 122 124 121 110 104 103 101 100 99 99 104 108 108 107 103 98 95 95 97 99 100 104 109 106 102 99 92 91 92 89 91 93 94 95 90 83 69 60 58 55 51 46 43 38 34 29 28 30 31 32 33 36 38 41 43 49 58 64 71 73 81 87
223 189 242 203 181 180 150 149 152 167 167 152 141 137 154 164 174 170 181 167 139 94 82 56 33 147 123 120 144 143 122 116 119 121 123 120 120 116 110 108 105 102 100 98 100 104 110 113 113 113 108 104 99 96 97 97 102 105 102 99 97 96 96 93 87 88 90 92 91 85 74 62 56 52 47 42 37 33 27 24 19 16 17 18 22 24 27 31 36 39 43 52 60 71 75 89 100
228 198 246 181 178 176 159 164 166 184 160 146 146 145 148 92 96 149 34 185 100 62 91 77 14 329 130 140 147 137 133 124 119 126 127 120 117 114 114 115 110 109 106 103 103 106 112 112 111 113 113 113 108 103 100 100 105 104 102 106 106 104 97 87 84 86 88 88 86 81 73 65 57 51 44 33 24 21 19 17 14 13 13 12 16 19 20 23 32 39 40 44 55 67 70 90 110
233 215 218 189 186 180 174 169 173 193 151 148 148 149 149 99 76 117 29 360 102 95 121 69 41 17 43 66 113 127 134 127 123 129 129 123 121 119 120 122 117 114 111 108 106 106 110 113 113 112 113 113 111 108 104 101 100 99 99 103 103 99 91 84 84 83 83 82 81 77 71 65 55 49 44 34 23 18 15 16 15 14 16 15 19 20 18 21 28 41 45 46 52 65 70 91 119
221 226 215 198 197 184 168 169 176 166 138 146 150 161 163 126 107 101 96 21 107 115 91 66 61 53 60 85 109 125 133 128 128 135 136 134 132 133 133 132 129 124 115 109 107 110 110 110 111 113 114 111 110 108 104 102 95 92 94 94 92 87 83 82 82 81 80 74 69 66 59 56 50 45 42 38 33 25 18 20 23 22 24 26 28 28 24 26 32 47 56 57 58 70 74 85 113
210 218 214 204 191 168 159 163 148 123 143 154 159 173 172 146 148 144 157 132 113 133 115 102 95 85 91 105 115 130 138 136 142 146 144 147 147 145 143 141 136 130 127 120 115 120 117 112 113 112 112 110 111 108 103 102 96 93 92 89 87 85 83 81 80 79 77 67 60 58 52 49 48 46 41 40 40 35 29 29 32 34 35 35 38 39 38 38 40 53 67 75 74 77 82 87 108
228 226 212 196 130 118 132 140 121 130 149 152 157 169 171 155 150 163 191 148 145 168 141 145 122 112 124 122 126 139 145 145 153 155 150 155 151 147 146 141 138 138 140 133 128 132 126 120 118 114 114 113 110 108 105 100 94 92 88 86 84 84 82 78 75 70 68 66 60 54 51 50 49 49 43 42 42 37 36 39 42 45 44 42 46 46 42 42 42 47 65 82 82 78 93 100 112
231 247 215 128 111 111 113 120 109 128 143 150 154 157 163 155 147 174 210 173 178 198 158 176 162 139 135 130 137 147 151 148 152 153 150 153 148 149 148 141 145 145 141 137 138 138 133 128 122 118 118 116 111 105 100 94 89 86 83 82 80 77 74 71 69 68 68 65 61 54 50 48 45 44 39 38 39 34 34 38 42 45 45 44 49 47 41 45 46 44 52 70 77 73 84 96 106
191 273 139 114 129 125 121 123 105 117 143 149 145 146 152 146 160 182 203 195 198 199 144 168 170 145 133 134 142 148 149 145 150 151 148 151 151 152 141 141 146 140 144 147 141 137 138 134 125 123 122 119 111 99 91 87 83 80 76 74 73 68 59 65 72 74 73 65 61 58 52 46 41 40 37 34 33 32 31 32 37 41 42 42 44 44 41 42 47 48 51 60 70 76 80 85 98
144 54 78 113 139 127 127 132 104 111 138 143 143 147 145 143 172 185 209 236 333 95 108 96 149 142 134 134 139 145 144 141 148 148 150 154 156 152 136 141 143 142 160 150 132 133 138 137 132 130 127 120 107 94 89 85 78 70 65 60 55 54 60 77 82 78 73 65 59 54 52 50 46 43 39 35 32 31 30 31 36 38 40 41 39 41 42 39 43 48 52 59 66 76 82 88 97
167 103 89 101 121 119 125 128 113 127 144 147 146 139 140 147 161 180 206 334 33 65 94 111 130 131 130 131 139 146 141 140 144 143 154 162 159 155 145 147 149 156 166 140 130 138 141 141 138 135 127 118 106 97 88 78 71 64 57 47 38 51 79 89 86 81 74 65 57 51 51 52 50 46 42 37 32 30 30 30 33 35 37 39 36 39 43 42 45 48 52 58 64 74 82 89 95
175 119 103 88 93 109 112 113 115 125 130 130 133 138 154 155 153 180 152 66 61 111 120 127 126 126 128 133 142 143 142 144 142 139 152 163 158 154 152 151 154 162 153 136 139 141 142 147 142 135 127 117 108 97 84 71 65 61 48 44 56 74 90 90 86 83 76 67 59 55 54 54 51 46 40 36 32 30 31 31 32 35 35 36 36 37 41 43 47 50 54 59 64 73 78 80 84
142 123 113 98 94 101 104 109 110 107 112 121 133 143 153 147 152 165 123 90 118 144 143 138 132 136 139 144 144 139 146 144 138 140 142 149 149 151 155 153 158 160 146 143 145 138 141 148 142 134 128 119 112 97 80 70 60 51 46 61 80 89 91 89 88 84 77 71 64 60 57 54 49 42 35 31 31 30 32 34 37 38 37 37 38 38 39 41 46 51 57 63 67 73 79 81 85
129 127 121 115 105 104 111 113 110 108 112 130 136 133 125 131 160 145 114 117 135 148 154 144 144 147 146 149 144 141 149 142 143 151 141 139 145 151 156 156 159 155 148 148 143 136 138 140 136 132 126 119 112 98 82 71 57 54 67 85 93 93 92 93 90 83 77 73 68 61 56 52 46 39 33 29 30 30 33 37 40 42 43 40 39 40 38 38 43 50 56 62 67 72 77 79 86
124 124 116 116 110 108 116 114 112 111 110 137 147 138 135 151 211 183 129 145 153 157 157 149 157 151 145 147 140 144 150 146 152 155 144 144 149 153 157 157 155 150 150 149 139 135 134 131 129 127 123 117 110 99 88 74 65 75 90 98 97 96 98 97 90 84 79 75 68 60 55 52 46 39 33 30 30 32 35 38 41 43 44 41 40 39 36 39 46 52 57 62 67 71 75 75 80
130 124 116 116 115 113 122 123 127 128 114 144 154 145 151 170 226 174 125 154 163 157 157 156 163 153 146 144 138 150 157 153 158 158 152 152 154 158 158 155 154 153 152 147 139 135 133 129 127 126 123 116 109 100 91 81 83 97 103 103 102 102 100 95 89 86 81 75 67 60 54 49 43 38 32 29 31 34 36 39 41 42 42 40 37 35 34 40 49 58 63 68 71 73 77 77 78
140 135 127 127 131 130 135 134 143 156 137 151 158 157 173 182 188 121 127 163 158 154 158 155 159 155 146 141 146 159 162 161 165 164 159 156 156 160 158 155 158 156 149 143 138 138 137 132 129 127 123 116 109 102 93 91 100 107 108 110 108 104 98 93 91 87 82 76 66 58 52 45 40 35 30 28 31 36 37 38 39 39 39 38 36 34 33 40 51 63 70 76 79 81 82 81 84
146 151 146 146 161 155 146 146 157 158 138 159 188 196 172 167 159 136 145 173 167 162 158 151 157 157 145 144 157 156 157 165 169 166 160 158 156 159 159 158 161 153 143 142 140 141 139 134 131 128 124 118 111 105 99 105 112 113 112 113 110 104 100 97 93 88 83 77 66 56 48 43 39 35 30 28 32 36 37 37 37 37 36 36 38 35 36 46 56 63 74 83 84 87 87 85 87
154 159 170 179 195 158 149 161 173 162 143 174 220 248 148 145 157 153 158 180 182 170 157 155 164 163 150 151 162 153 154 164 166 162 158 159 157 160 159 155 156 148 142 143 142 142 139 136 135 130 129 122 115 110 109 118 120 117 114 114 111 107 105 100 94 89 83 75 66 55 47 43 39 35 30 30 34 36 38 38 37 39 39 40 42 40 42 53 62 64 68 84 94 93 92 89 87
165 176 183 200 202 150 154 174 190 174 158 187 233 258 125 138 154 159 172 185 186 175 162 160 168 171 159 155 164 158 156 159 160 159 156 160 160 158 156 151 151 148 146 145 142 142 138 138 137 134 134 126 121 116 118 126 122 116 114 115 114 110 106 100 93 87 80 72 65 56 47 43 39 35 31 33 37 37 40 40 40 43 44 47 48 44 47 55 65 71 68 79 97 97 96 96 90
185 216 191 188 194 163 162 178 196 188 163 187 230 260 95 131 149 156 178 185 185 186 170 164 172 176 167 161 164 162 160 157 159 160 158 162 163 156 152 151 151 149 148 146 144 143 140 140 139 137 136 130 126 122 127 130 123 118 118 117 114 111 107 100 93 86 78 71 64 57 49 44 40 35 32 34 39 40 42 44 44 46 49 52 52 48 51 58 68 79 77 78 93 101 100 99 95
183 213 203 191 198 175 164 171 186 192 183 192 214 236 59 116 147 158 178 185 188 193 178 169 176 182 177 167 166 167 166 164 164 163 161 163 161 154 150 152 153 151 149 147 146 146 145 144 143 139 135 133 131 130 133 132 126 124 121 118 115 111 106 98 92 86 79 71 65 58 51 46 41 37 34 36 42 43 45 47 47 49 52 54 52 52 55 61 70 82 85 81 87 99 100 99 99
181 194 197 186 195 190 178 168 174 185 199 204 202 209 141 136 158 166 175 186 193 195 183 175 177 186 186 174 170 171 168 168 168 164 162 163 160 154 153 154 154 153 150 150 149 149 149 147 143 140 136 136 136 137 137 133 130 127 123 121 118 114 108 100 94 88 80 73 68 60 52 48 42 38 37 40 45 47 47 49 49 50 53 56 55 56 60 66 72 80 89 89 87 91 94 96 97
169 186 200 180 185 184 166 151 162 179 196 204 201 197 160 161 172 172 173 184 198 192 181 183 182 185 189 179 174 171 169 168 167 166 163 163 160 156 157 156 155 155 154 153 154 154 152 149 146 142 140 139 140 145 144 139 136 132 129 127 120 115 110 103 96 88 81 74 69 60 53 50 45 42 40 42 46 48 49 49 49 52 55 59 58 55 60 69 76 81 87 94 95 95 94 94 98
152 167 179 175 174 155 144 142 157 182 201 191 194 196 169 171 170 173 174 179 195 193 184 190 188 185 186 183 179 174 172 166 165 167 165 164 161 158 159 157 157 158 159 160 160 159 156 153 151 147 144 144 146 150 150 147 142 138 135 132 127 122 115 109 101 90 83 76 68 61 55 52 50 47 45 45 47 49 52 52 52 55 57 61 60 57 60 69 78 85 91 97 101 100 94 92 94
158 155 152 167 163 125 134 148 156 184 215 176 182 213 183 170 166 168 175 182 192 193 189 193 190 187 186 185 183 177 171 165 166 168 166 167 164 161 161 161 162 164 165 167 166 163 160 158 154 150 149 149 150 153 152 150 146 142 140 136 132 126 118 112 106 96 88 82 73 64 57 52 51 48 46 47 49 53 56 57 57 57 59 63 64 62 61 67 76 86 97 103 105 103 93 83 63
193 163 159 152 130 119 128 157 162 179 225 174 180 225 185 163 168 166 177 190 193 192 192 193 190 190 189 188 186 178 172 170 170 170 169 170 168 165 166 167 170 170 170 173 171 166 164 164 158 153 154 154 153 155 155 154 149 145 143 138 135 129 117 108 105 101 96 88 77 67 58 53 52 50 49 49 51 56 59 61 62 62 63 64 65 64 61 62 68 76 90 102 112 117 103 71 27
209 167 193 126 135 161 142 166 177 180 227 231 191 225 180 160 172 172 182 193 192 192 193 194 195 195 192 190 188 181 177 174 174 174 173 173 171 170 170 172 175 175 176 177 174 170 169 169 164 160 161 158 156 159 158 156 153 148 144 141 139 132 123 118 115 109 102 93 82 71 62 57 57 55 54 54 55 59 62 65 66 68 68 65 64 64 61 60 62 65 72 83 102 125 111 63 28
210 163 240 104 141 187 121 155 175 181 212 228 229 232 188 174 185 181 182 190 194 193 193 197 200 200 196 193 192 190 185 180 178 178 177 176 175 176 176 176 178 180 182 181 178 175 173 172 170 167 167 164 161 164 162 158 157 154 150 147 146 141 139 139 130 120 112 102 88 74 66 62 60 60 58 57 58 60 64 68 70 72 72 70 67 66 62 61 62 63 66 70 71 75 95 80 49
201 160 205 96 139 142 120 152 171 191 202 195 232 253 177 173 193 187 175 185 195 193 193 197 198 199 199 196 195 195 191 186 185 183 180 178 178 178 180 180 182 185 185 184 182 179 177 175 173 170 170 170 168 169 168 165 165 163 159 157 156 155 152 145 134 126 118 105 94 83 76 69 65 66 63 59 61 63 65 68 71 72 74 74 72 70 65 60 60 61 59 62 66 62 76 90 71
181 147 184 144 137 136 143 166 192 234 135 148 220 267 241 175 192 185 176 184 191 192 195 197 196 197 198 197 196 196 194 190 190 187 182 180 180 180 183 184 186 187 186 186 184 183 183 180 178 176 175 175 174 174 175 174 172 171 169 164 161 160 154 146 137 130 121 111 108 99 88 78 72 70 67 64 62 64 65 65 69 71 74 76 75 73 69 63 62 61 59 58 61 58 62 79 77
110 128 176 154 143 148 158 184 220 318 65 164 203 254 284 217 172 171 178 185 189 192 198 197 197 198 197 197 196 194 196 193 191 189 185 184 183 183 185 186 187 189 186 186 186 185 186 186 184 183 180 179 179 178 180 181 179 177 176 171 168 167 157 151 151 144 139 133 126 118 104 91 80 72 72 71 64 64 68 66 69 73 75 77 77 76 73 71 71 68 67 64 62 61 60 67 69
105 140 155 142 141 145 163 204 206 358 259 195 166 220 266 206 132 158 178 190 197 198 199 199 198 199 198 198 196 195 195 194 192 190 187 188 187 187 187 186 187 189 187 187 187 185 187 188 187 186 183 183 184 183 184 186 184 181 181 177 173 169 160 157 158 155 155 152 147 142 127 110 91 82 81 78 69 65 71 71 72 76 79 81 81 82 81 79 78 74 72 71 69 68 62 64 67
127 143 129 130 136 139 183 237 159 227 261 86 111 207 272 259 134 162 181 198 209 204 202 201 199 198 197 197 196 195 194 192 193 191 189 190 189 189 189 187 186 188 188 188 188 187 187 187 187 187 186 187 188 187 188 188 187 185 184 181 176 172 168 168 165 163 168 166 163 162 151 137 113 100 91 83 74 67 73 78 78 80 85 88 88 90 89 86 85 82 79 78 78 76 71 69 69
137 146 136 139 138 149 201 248 246 238 204 79 85 221 280 281 143 153 178 204 213 206 201 199 199 199 197 197 195 194 193 192 192 191 189 189 190 190 190 189 187 188 188 189 190 190 187 188 189 188 188 190 190 190 191 190 190 189 187 185 182 179 178 178 177 175 180 180 177 176 171 163 149 134 111 94 84 75 75 84 86 86 89 93 95 95 95 94 92 89 85 83 82 81 80 77 74
154 162 155 159 150 173 200 170 215 254 105 89 80 220 258 263 113 126 164 183 198 203 199 194 197 199 196 196 196 193 193 193 192 191 189 187 188 189 190 190 188 187 188 189 192 193 190 190 191 188 189 192 191 192 193 192 192 193 192 190 189 187 188 187 187 187 186 186 184 183 181 177 171 164 146 121 103 87 80 88 94 93 94 98 100 100 100 100 98 95 89 84 82 80 79 79 75
191 186 188 214 178 170 215 166 193 312 74 82 91 220 239 257 286 255 193 184 191 198 200 194 195 197 195 194 195 193 193 193 192 191 189 186 186 188 189 190 189 189 189 190 192 194 193 194 193 190 190 191 191 192 194 194 195 197 196 195 194 192 195 197 193 191 191 189 191 193 194 191 187 183 175 157 133 109 91 100 112 110 109 110 109 108 105 103 100 95 90 84 80 78 78 80 77
203 194 220 257 343 47 284 112 93 37 80 88 137 215 239 224 214 227 177 170 179 189 199 196 194 195 194 193 192 192 193 193 192 191 190 187 184 187 189 189 191 192 190 190 193 195 196 196 195 193 191 190 190 191 194 196 196 198 197 197 197 196 198 200 196 193 191 193 199 206 209 206 200 195 184 169 152 140 125 134 146 138 130 125 120 118 113 108 104 98 93 90 85 83 84 86 85
176 241 280 280 335 329 317 8 25 14 53 109 147 222 296 349 164 159 131 150 179 206 205 193 192 193 192 192 192 190 191 193 192 191 192 187 184 187 189 190 192 193 189 189 192 194 197 198 195 194 192 189 190 192 194 196 197 198 198 198 200 200 201 202 201 202 201 203 211 217 222 219 208 198 186 173 161 158 161 166 165 155 145 139 131 128 121 115 114 109 106 104 99 98 99 98 97
146 230 255 283 353 331 339 1 354 339 326 105 168 245 333 23 141 184 192 212 216 220 205 190 187 187 188 191 192 190 190 192 192 191 191 187 185 187 189 190 193 192 189 189 191 192 196 198 195 195 195 192 192 193 194 196 198 197 198 199 202 204 206 205 206 210 214 220 230 233 232 226 211 195 185 179 173 173 175 175 174 165 157 151 143 137 131 127 126 123 120 118 115 112 111 111 110
175 203 181 72 7 306 308 352 271 271 296 49 7 280 106 72 66 139 167 199 180 181 188 185 182 179 182 189 191 190 189 190 191 191 190 187 184 186 188 190 192 191 190 190 192 192 193 195 194 195 197 195 193 194 194 196 198 197 198 200 203 207 211 211 211 214 220 228 236 239 239 229 212 196 188 190 191 188 182 177 177 172 162 158 152 146 142 139 137 135 133 130 127 127 123 121 124
201 174 111 121 91 293 278 275 232 248 336 61 24 351 34 55 75 125 153 162 143 159 171 171 174 175 179 187 190 190 189 189 190 190 190 186 184 185 189 191 192 192 193 192 191 191 191 192 194 195 196 196 193 193 194 195 197 198 199 202 206 210 213 214 214 217 222 227 232 238 239 230 212 199 197 205 205 196 188 182 179 176 167 162 159 155 153 151 145 144 144 140 139 141 139 137 138
296 19 126 193 270 184 189 290 315 330 2 52 34 356 15 21 39 99 131 127 132 155 163 168 174 177 181 185 186 188 189 188 190 191 188 185 185 186 188 191 193 193 194 193 190 190 190 191 195 196 196 195 193 191 193 195 198 200 201 204 207 210 211 212 214 217 220 226 233 237 236 227 212 202 206 215 207 196 193 188 183 181 173 167 164 162 162 161 156 154 155 154 157 158 157 158 158
271 215 184 234 321 347 358 335 321 315 342 24 6 349 75 52 24 28 68 94 138 158 171 180 180 180 184 184 183 186 187 187 189 189 187 184 185 186 187 191 193 193 194 192 189 190 190 190 193 195 194 194 193 192 193 195 199 201 203 205 206 208 209 211 213 216 220 228 235 235 231 223 214 207 212 219 209 197 196 192 186 183 178 173 171 169 168 168 167 165 167 171 174 177 177 174 175
209 208 198 194 206 280 284 263 303 319 327 11 2 343 54 61 29 8 42 73 163 171 181 189 185 185 186 182 182 183 183 186 187 188 187 183 182 185 187 190 193 192 192 192 190 190 191 190 192 193 193 194 195 195 196 197 200 202 203 204 204 205 208 210 213 217 223 231 235 233 227 219 215 214 216 218 211 202 199 195 191 187 183 180 177 176 175 174 176 174 175 180 184 189 192 188 190
238 232 219 206 202 248 255 212 178 291 309 348 340 320 26 65 45 6 24 27 209 192 193 193 187 187 185 180 180 181 181 183 185 186 186 182 180 184 185 188 192 191 190 191 190 191 192 191 191 191 192 195 197 198 199 199 200 203 203 203 203 203 206 210 214 218 224 230 231 230 227 220 215 217 220 216 207 204 202 198 196 193 189 188 185 182 181 179 182 183 181 186 192 196 201 199 201